Location: ???? ??
(36.0534°N, 43.5630°E)
Time: 01:40:58
(UTC+00:00)

Aureole 1 Rocket - Pass Details

Date: 18 September 2019
Orbit: 379 x 1383 km, 73.9° (Epoch: 13 October)

Event Time Altitude Azimuth Distance (km) Brightness Sun altitude
Rises 16:51:47 0° 334° (NNW) 3,262 7.4 -21.1°
Reaches altitude 10° 16:54:36 10° 327° (NNW) 2,151 6.5 -21.7°
Maximum altitude 16:58:54 36° 261° (W) 917 4.4 -22.5°
Enters shadow 17:01:20 17° 202° (SSW) 1,347 4.8 -23.0°
